Location: Consuma
(43.7833°N, 11.5833°E)
Time: 17:05:25
(UTC+00:00)

Cosmos 1500 Rocket - Pass Details

Date: 17 February 2020
Orbit: 602 x 632 km, 82.5° (Epoch: 30 March)

Event Time Altitude Azimuth Distance (km) Brightness Sun altitude
Rises 04:56:15 0° 344° (NNW) 2,927 6.8 -14.0°
Reaches altitude 10° 04:58:35 10° 338° (NNW) 2,011 5.9 -13.6°
Maximum altitude 05:02:46 41° 268° (W) 909 3.9 -12.9°
Drops below altitude 10° 05:06:53 10° 198° (SSW) 1,979 6.0 -12.1°
Sets 05:09:10 0° 191° (SSW) 2,874 6.9 -11.7°
